Weather History for Bigfork, MN

Change the Weather History Date:

Sunday, May 25, 2014

  Actual Average (KGPZ) Record (KGPZ)
Temperature  
Mean Temperature 72 °F -  
Max Temperature 84 °F 70 °F 87 °F (1977)
Min Temperature 59 °F 44 °F 26 °F (1917)
Cooling Degree Days 6    
Growing Degree Days 22 (Base 50)    
Moisture  
Dew Point 45 °F    
Average Humidity 34    
Maximum Humidity 63    
Minimum Humidity 22    
Precipitation  
Precipitation 0.00 in - - ()
Sea Level Pressure  
Sea Level Pressure 29.92 in    
Wind  
Wind Speed 10 mph (South)    
Max Wind Speed 18 mph    
Max Gust Speed 25 mph    
Visibility 10 miles    
Events      
Averages and records for this station are not official NWS values.
T = Trace of Precipitation, MM = Missing Value Source: NWS Daily Summary

Daily Weather History Graph

Daily Weather History Graph

Search for Another Location

Airport:

Trip Planner

Search our weather history database for the weather conditions in past years. The results will help you decide how hot, cold, wet, or windy it might be!

Date:

Astronomy

May. 25, 2014 Rise Set
Actual Time 5:25 AM CDT 8:58 PM CDT
Civil Twilight 4:47 AM CDT 9:36 PM CDT
Nautical Twilight 3:55 AM CDT 10:28 PM CDT
Astronomical Twilight 2:46 AM CDT 11:38 PM CDT
Moon 3:46 AM CDT (5/25) 5:46 PM CDT (5/25)
Length of Visible Light 16h 49m
Length of Day
15h 32m
Waning Crescent, 10% of the Moon is Illuminated
May 25
Waning Crescent
May 28
New
Jun 5
First Quarter
Jun 12
Full
Jun 19
Last Quarter

Hourly Weather History & Observations

Time (CDT) Temp. Dew Point Humidity Pressure Visibility Wind Dir Wind Speed Gust Speed Precip Events Conditions
12:08 AM 66.2 °F 46.4 °F 49% 30.00 in 10.0 mi South 8.1 mph - N/A   Clear
4:24 AM 62.6 °F 46.4 °F 55% 29.98 in 10.0 mi South 6.9 mph - N/A   Clear
5:07 AM 60.8 °F 46.4 °F 59% 29.98 in 10.0 mi South 6.9 mph - N/A   Clear
6:12 AM 59.0 °F 46.4 °F 63% 29.98 in 10.0 mi South 4.6 mph - N/A   Clear
9:21 AM 75.2 °F 46.4 °F 36% 29.98 in 10.0 mi SSW 5.8 mph - N/A   Clear
11:23 AM 80.6 °F 44.6 °F 28% 29.96 in 10.0 mi South 11.5 mph - N/A   Clear
11:33 AM 82.4 °F 44.6 °F 26% 29.95 in 10.0 mi SSW 12.7 mph 16.1 mph N/A   Clear
1:01 PM 84.2 °F 44.6 °F 25% 29.92 in 10.0 mi SSE 11.5 mph 17.3 mph N/A   Clear
1:21 PM 84.2 °F 44.6 °F 25% 29.91 in 10.0 mi South 12.7 mph 17.3 mph N/A   Clear
1:23 PM 84.2 °F 44.6 °F 25% 29.91 in 10.0 mi South 13.8 mph 20.7 mph N/A   Clear
2:03 PM 84.2 °F 42.8 °F 23% 29.90 in 10.0 mi South 15.0 mph 23.0 mph N/A   Clear
2:07 PM 84.2 °F 41.0 °F 22% 29.90 in 10.0 mi South 12.7 mph 23.0 mph N/A   Clear
3:01 PM 84.2 °F 42.8 °F 23% 29.89 in 10.0 mi South 16.1 mph 25.3 mph N/A   Clear
3:03 PM 84.2 °F 42.8 °F 23% 29.89 in 10.0 mi South 17.3 mph 25.3 mph N/A   Clear
3:09 PM 84.2 °F 41.0 °F 22% 29.89 in 10.0 mi SSW 18.4 mph 25.3 mph N/A   Clear
3:34 PM 82.4 °F 42.8 °F 25% 29.88 in 10.0 mi SSW 15.0 mph 24.2 mph N/A   Clear
3:58 PM 84.2 °F 44.6 °F 25% 29.87 in 10.0 mi SW 13.8 mph 24.2 mph N/A   Clear
6:06 PM 80.6 °F 44.6 °F 28% 29.87 in 10.0 mi SSW 13.8 mph 19.6 mph N/A   Clear
6:47 PM 78.8 °F 46.4 °F 32% 29.86 in 10.0 mi SSW 13.8 mph 19.6 mph N/A   Clear
6:58 PM 78.8 °F 48.2 °F 34% 29.87 in 10.0 mi SSW 13.8 mph 17.3 mph N/A   Clear
7:15 PM 78.8 °F 51.8 °F 39% 29.87 in 10.0 mi SSW 11.5 mph 16.1 mph N/A   Clear
9:21 PM 69.8 °F 55.4 °F 60% 29.88 in 10.0 mi South 5.8 mph - N/A   Clear